Stations météo

réclame
Mon MeteoGroup
Helsingborg, Suède (2611): Température de l'air & dewpoint: 17.04.2018 00:00:00 - 23.04.2018 00:00:00 (CEST)Helsingborg, Suède (2611): Vitesse du vent & gusts: 17.04.2018 00:00:00 - 23.04.2018 00:00:00 (CEST)Helsingborg, Suède (2611): Direction du vent: 17.04.2018 00:00:00 - 23.04.2018 00:00:00 (CEST)Helsingborg, Suède (2611): reduced air pressure: 17.04.2018 00:00:00 - 23.04.2018 00:00:00 (CEST)Helsingborg, Suède (2611): visibility: 17.04.2018 00:00:00 - 23.04.2018 00:00:00 (CEST)Helsingborg, Suède (2611): Quantités de précipitations: 17.04.2018 00:00:00 - 23.04.2018 00:00:00 (CEST)
Date & Time tt [°C] td [°C] ff [km/h] ff [knt] fx [km/h] fx [knt] dd ppp [hPa] vv [km] rr [mm]
23.04.2018 00:00:00 - - - - - - - - - -
22.04.2018 23:00:00 8,0 4,0 6 4 11 6 SE 1012,6 50 0,0
22.04.2018 22:00:00 8,8 5,0 5 3 11 6 SE 1012,6 50 0,0
22.04.2018 21:00:00 9,8 4,4 7 4 14 8 S 1013,2 50 0,0
22.04.2018 20:00:00 10,7 4,6 7 4 14 8 S 1012,9 50 0,0
22.04.2018 19:00:00 13,8 0,4 5 3 13 7 S 1013,0 50 0,0
22.04.2018 18:00:00 14,1 2,0 9 5 16 9 SSW 1013,8 42 0,0
22.04.2018 17:00:00 14,5 2,4 5 3 24 13 S 1014,2 48 0,0
22.04.2018 16:00:00 14,8 3,9 12 6 24 13 SSW 1015,1 39 0,0
22.04.2018 15:00:00 14,2 5,5 11 6 19 10 SW 1015,6 35 0,0
22.04.2018 14:00:00 14,7 3,5 5 3 15 8 SE 1015,7 32 0,0
22.04.2018 13:00:00 13,8 5,4 4 2 18 10 WNW 1016,5 32 0,0
22.04.2018 12:00:00 11,8 5,0 8 4 18 10 W 1017,0 27 0,0
22.04.2018 11:00:00 11,5 5,6 8 4 14 8 WSW 1017,1 25 0,0
22.04.2018 10:00:00 9,4 5,0 6 3 15 8 WNW 1017,2 37 0,0
22.04.2018 09:00:00 8,0 5,1 6 3 15 8 WNW 1017,4 35 0,0
22.04.2018 08:00:00 7,4 5,2 8 4 13 7 NW 1017,6 23 0,0
22.04.2018 07:00:00 6,8 5,0 4 2 11 6 W 1017,6 25 0,0
22.04.2018 06:00:00 6,3 5,6 7 4 11 6 NNW 1017,4 15 0,0
22.04.2018 05:00:00 4,4 4,1 4 2 7 4 NW 1017,7 12 0,0
22.04.2018 04:00:00 3,4 2,8 3 1 10 5 ESE 1017,8 11 0,0
22.04.2018 03:00:00 4,6 3,1 0 0 11 6 N 1017,8 30 0,0
22.04.2018 02:00:00 6,7 5,0 5 3 11 6 WNW 1017,9 49 0,0
22.04.2018 01:00:00 6,9 4,2 5 3 9 5 WNW 1018,1 50 0,0
22.04.2018 00:00:00 6,3 4,1 3 2 13 7 NW 1018,3 50 0,0
21.04.2018 23:00:00 6,9 3,9 2 1 13 7 N 1018,2 50 0,0
21.04.2018 22:00:00 9,0 4,6 3 2 21 12 WNW 1018,3 50 0,0
21.04.2018 21:00:00 9,6 4,0 5 3 23 12 NW 1018,6 50 0,0
21.04.2018 20:00:00 - - - - - - - - - -
21.04.2018 19:00:00 12,5 4,7 10 5 32 17 WNW 1018,4 48 0,0
21.04.2018 18:00:00 13,6 4,7 13 7 36 19 WNW 1018,6 37 0,0
21.04.2018 17:00:00 14,0 4,8 19 11 36 19 NW 1018,9 34 0,0
21.04.2018 16:00:00 13,6 4,7 19 11 44 24 WNW 1019,0 47 0,0
21.04.2018 15:00:00 14,4 4,7 22 12 46 25 NW 1019,2 35 0,0
21.04.2018 14:00:00 14,0 5,1 24 13 46 25 WNW 1019,4 31 0,0
21.04.2018 13:00:00 13,4 5,8 21 11 50 27 WNW 1019,2 26 0,0
21.04.2018 12:00:00 11,7 5,6 22 12 50 27 WNW 1019,3 26 0,0
21.04.2018 11:00:00 11,2 5,5 22 12 45 25 WNW 1018,8 28 0,0
21.04.2018 10:00:00 10,9 5,4 21 11 45 25 NW 1018,2 31 0,0
21.04.2018 09:00:00 10,5 5,3 20 11 46 25 WNW 1017,7 28 0,0
21.04.2018 08:00:00 9,8 5,4 18 10 46 25 WNW 1017,1 30 0,0
21.04.2018 07:00:00 9,5 5,5 24 13 44 24 WNW 1016,6 27 0,0
21.04.2018 06:00:00 9,5 5,7 19 11 39 21 WNW 1016,2 22 0,0
21.04.2018 05:00:00 9,0 6,1 15 8 30 16 WNW 1016,0 14 0,0
21.04.2018 04:00:00 9,3 6,6 14 7 37 20 NW 1016,1 12 0,0
21.04.2018 03:00:00 10,0 6,9 16 8 40 22 NW 1015,8 10 0,0
21.04.2018 02:00:00 11,6 7,5 22 12 47 25 WNW 1015,8 11 0,0
21.04.2018 01:00:00 13,2 8,1 21 11 47 25 WNW 1015,6 12 0,0
21.04.2018 00:00:00 13,6 8,2 14 8 24 13 W 1015,5 10 0,0
20.04.2018 23:00:00 13,4 8,2 9 5 31 17 NW 1015,2 9 0,0
20.04.2018 22:00:00 13,7 8,5 12 7 31 17 NW 1015,3 9 0,0
20.04.2018 21:00:00 18,8 9,6 18 10 31 17 WNW 1014,7 11 0,0
20.04.2018 20:00:00 18,2 10,3 7 4 26 14 WSW 1014,0 14 0,0
20.04.2018 19:00:00 19,7 10,4 11 6 31 17 SSW 1014,5 21 0,0
20.04.2018 18:00:00 19,7 12,0 16 9 40 21 S 1015,1 20 0,0
20.04.2018 17:00:00 19,3 12,3 22 12 43 23 S 1016,4 24 0,0
20.04.2018 16:00:00 19,5 12,5 24 13 43 23 S 1017,2 17 0,0
20.04.2018 15:00:00 20,9 12,1 21 11 - - S 1018,4 22 0,0
20.04.2018 14:00:00 20,5 12,0 19 10 31 17 S 1019,8 19 0,0
20.04.2018 13:00:00 20,3 11,8 16 9 31 17 S 1020,7 22 0,0
20.04.2018 12:00:00 18,7 11,8 21 11 29 16 S 1021,8 19 0,0
20.04.2018 11:00:00 18,4 11,9 15 8 29 16 S 1022,3 23 0,0
20.04.2018 10:00:00 15,7 10,7 16 8 25 14 S 1023,3 25 0,0
20.04.2018 09:00:00 14,6 10,4 11 6 22 12 S 1023,9 22 0,0
20.04.2018 08:00:00 12,6 10,3 7 4 12 6 S 1024,7 12 0,0
20.04.2018 07:00:00 9,5 8,6 5 3 9 5 SE 1025,3 4,4 0,0
20.04.2018 06:00:00 8,6 7,8 5 3 9 5 ESE 1025,5 3,5 0,0
20.04.2018 05:00:00 9,0 8,1 5 3 9 5 SE 1026,2 5 0,0
20.04.2018 04:00:00 9,3 8,1 4 2 9 5 SE 1026,8 9 0,0
20.04.2018 03:00:00 9,6 8,0 5 3 8 4 ESE 1027,0 10 0,0
20.04.2018 02:00:00 9,8 8,2 5 3 6 4 ESE 1027,6 10 0,0
20.04.2018 01:00:00 9,9 8,5 3 2 7 4 SSE 1027,9 10 0,0
20.04.2018 00:00:00 10,8 8,7 4 2 8 5 S 1028,2 10 0,0
19.04.2018 23:00:00 11,5 8,9 3 2 9 5 SSE 1028,5 13 0,0
19.04.2018 22:00:00 12,7 9,5 4 2 9 5 SSE 1028,8 13 0,0
19.04.2018 21:00:00 13,5 9,7 4 2 10 5 S 1029,0 17 0,0
19.04.2018 20:00:00 15,1 9,9 6 3 14 8 SSW 1029,1 23 0,0
19.04.2018 19:00:00 16,8 9,2 8 4 14 8 SW 1029,4 43 0,0
19.04.2018 18:00:00 19,6 8,6 8 5 16 9 WSW 1029,7 - 0,0
19.04.2018 17:00:00 20,3 8,9 6 4 19 10 WNW 1030,1 31 0,0
19.04.2018 16:00:00 20,7 9,6 7 4 19 10 WNW 1030,7 33 0,0
19.04.2018 15:00:00 20,5 10,3 9 5 22 12 NW 1031,2 28 0,0
19.04.2018 14:00:00 19,8 10,5 8 4 22 12 W 1031,4 26 0,0
19.04.2018 13:00:00 19,1 10,6 9 5 18 10 W 1031,6 32 0,0
19.04.2018 12:00:00 18,8 10,6 9 5 18 10 NW 1031,7 40 0,0
19.04.2018 11:00:00 18,2 10,8 8 5 18 10 NW 1031,6 25 0,0
19.04.2018 10:00:00 16,3 10,8 8 4 18 10 WNW 1031,8 21 0,0
19.04.2018 09:00:00 14,6 10,8 2 1 6 3 WSW 1031,8 12 0,0
19.04.2018 08:00:00 11,4 10,8 0 0 5 3 N 1031,4 6 0,0
19.04.2018 07:00:00 8,0 7,9 0 0 7 4 N 1031,2 1,4 0,0
19.04.2018 06:00:00 6,9 6,6 4 2 7 4 NNW 1031,3 0,8 0,0
19.04.2018 05:00:00 7,1 6,8 3 1 4 2 NW 1031,3 1,0 0,0
19.04.2018 04:00:00 7,4 7,0 0 0 5 3 N 1031,4 2,8 0,0
19.04.2018 03:00:00 7,6 7,0 0 0 5 3 N 1031,5 2,7 0,0
19.04.2018 02:00:00 8,4 7,5 3 2 9 5 NW 1031,5 3,9 0,0
19.04.2018 01:00:00 9,6 8,4 3 2 9 5 NW 1031,4 8 0,0
19.04.2018 00:00:00 9,5 8,3 3 2 5 3 NNW 1031,3 9 0,0
18.04.2018 23:00:00 10,7 9,0 0 0 8 4 N 1031,0 13 0,0
18.04.2018 22:00:00 11,7 8,9 3 2 10 5 W 1030,9 16 0,0
18.04.2018 21:00:00 13,7 9,1 3 2 22 12 WNW 1030,4 20 0,0
18.04.2018 20:00:00 15,8 9,7 9 5 25 13 WNW 1030,1 28 0,0
18.04.2018 19:00:00 17,7 10,1 10 5 26 14 WNW 1029,9 30 0,0
18.04.2018 18:00:00 18,0 10,1 13 7 26 14 NW 1029,7 30 0,0
18.04.2018 17:00:00 18,9 10,5 11 6 35 19 WNW 1029,6 29 0,0
18.04.2018 16:00:00 18,0 10,1 13 7 35 19 W 1029,8 34 0,0
18.04.2018 15:00:00 17,8 9,9 17 9 29 16 WNW 1029,7 35 0,0
18.04.2018 14:00:00 19,2 9,7 14 7 23 13 W 1029,2 34 0,0
18.04.2018 13:00:00 18,7 9,2 12 6 22 12 SW 1028,8 22 0,0
18.04.2018 12:00:00 17,4 8,0 11 6 21 11 SW 1029,0 19 0,0
18.04.2018 11:00:00 15,3 7,3 15 8 20 11 SW 1028,7 20 0,0
18.04.2018 10:00:00 12,7 6,5 10 6 19 11 SSW 1028,9 23 0,0
18.04.2018 09:00:00 11,7 5,8 11 6 19 11 SSW 1028,8 24 0,0
18.04.2018 08:00:00 10,7 5,9 9 5 14 8 S 1028,3 26 0,0
18.04.2018 07:00:00 8,0 5,5 7 4 12 7 S 1027,9 20 0,0
18.04.2018 06:00:00 7,1 4,7 9 5 12 7 S 1028,0 19 0,0
18.04.2018 05:00:00 7,2 5,2 5 3 9 5 S 1028,0 19 0,0
18.04.2018 04:00:00 8,1 5,5 4 2 9 5 S 1027,9 20 0,0
18.04.2018 03:00:00 7,7 5,3 6 3 8 5 S 1027,9 19 0,0
18.04.2018 02:00:00 7,2 5,3 6 4 8 4 S 1027,5 15 0,0
18.04.2018 01:00:00 7,2 5,2 5 3 12 7 S 1027,5 15 0,0
18.04.2018 00:00:00 8,5 5,4 4 2 12 7 S 1027,1 20 0,0
17.04.2018 23:00:00 9,1 5,8 6 3 11 6 S 1026,7 20 0,0
17.04.2018 22:00:00 8,4 6,0 6 3 11 6 S 1026,4 12 0,0
17.04.2018 21:00:00 9,5 6,0 2 1 9 5 SSW 1026,4 19 0,0
17.04.2018 20:00:00 10,6 5,6 0 0 15 8 N 1025,7 22 0,0
17.04.2018 19:00:00 12,0 5,8 7 4 18 10 NW 1025,6 20 0,0
17.04.2018 18:00:00 13,5 6,8 10 5 20 11 NW 1025,3 23 0,0
17.04.2018 17:00:00 14,0 6,8 9 5 20 11 NW 1025,0 25 0,0
17.04.2018 16:00:00 12,5 6,5 9 5 21 12 WNW 1025,0 22 0,0
17.04.2018 15:00:00 12,1 6,8 10 5 21 12 WNW 1024,7 22 0,0
17.04.2018 14:00:00 10,9 6,8 13 7 23 12 NW 1024,7 25 0,0
17.04.2018 13:00:00 9,1 6,2 13 7 23 12 WNW 1024,4 32 0,0
17.04.2018 12:00:00 8,3 6,6 9 5 19 10 WNW 1023,9 14 0,0
17.04.2018 11:00:00 8,0 6,3 9 5 19 11 WNW 1023,4 11 0,0
17.04.2018 10:00:00 6,9 6,5 10 5 19 11 WSW 1023,1 3,0 0,0
17.04.2018 09:00:00 7,0 6,7 9 5 18 10 W 1022,4 2,4 0,0
17.04.2018 08:00:00 7,1 6,5 11 6 19 11 W 1021,7 1,5 0,0
17.04.2018 07:00:00 8,8 8,5 10 6 19 11 WNW 1020,5 0,8 0,0
17.04.2018 06:00:00 9,5 8,3 10 6 18 10 WNW 1019,6 3,9 0,0
17.04.2018 05:00:00 9,5 8,1 4 2 6 4 WSW 1019,3 6 0,0
17.04.2018 04:00:00 9,2 7,3 2 1 6 4 WSW 1018,8 7 0,0
17.04.2018 03:00:00 8,9 7,5 3 1 6 3 S 1018,6 7 0,0
17.04.2018 02:00:00 9,4 7,8 2 1 5 3 W 1018,5 8 0,0
17.04.2018 01:00:00 9,3 7,9 0 0 5 3 N 1018,3 8 0,0
17.04.2018 00:00:00 7,9 7,0 3 2 4 2 ESE 1017,8 6 0,0

tt = Température de l'air
td = dewpoint
ff = Vitesse du vent
fx = gusts
dd = Direction du vent
ppp = reduced air pressure
vv = visibility
rr = Quantités de précipitations

stations d'obs. à proximité